Dewpoint
74 74 73 72 72 72 71 70 72 71 71 71 71 70 72 70 70 71 70 70 70 70 69 67 66 64 65 68 68 68 67 65 66 65 66 65 64 65 65 63 65 65
74 74 74 73 73 73 72 71 72 72 71 71 71 71 71 70 70 71 70 69 70 69 67 67 66 65 66 66 66 67 67 65 66 67 65 66 64 63 64 63 63 62
74 74 73 73 73 72 72 72 72 72 72 72 71 72 71 71 70 71 70 70 69 68 67 66 67 66 67 66 66 66 66 65 65 65 65 65 65 64 64 63 62 64
74 73 73 73 73 72 72 72 72 72 72 72 71 72 71 71 71 70 69 71 68 68 67 66 66 67 67 67 66 65 66 66 65 65 65 65 65 63 64 64 64 62
73 73 73 73 74 72 72 72 72 71 72 72 72 71 72 70 70 70 69 69 67 68 68 66 66 67 67 67 66 65 66 66 66 66 66 65 64 64 64 65 64 64
73 74 74 74 74 73 72 72 72 71 71 72 72 71 71 70 69 70 70 68 67 67 67 67 66 66 67 67 65 65 65 65 65 66 65 66 64 64 64 64 64 64
73 73 73 73 73 73 72 72 72 72 71 71 72 71 70 70 68 69 69 68 67 67 67 67 66 66 67 66 66 65 65 66 65 65 65 65 66 64 64 63 63 62
73 73 73 73 73 73 72 72 72 72 72 71 71 71 70 70 69 68 69 68 67 67 67 66 67 66 66 65 67 64 64 66 65 65 65 65 65 64 64 64 64 63
74 73 73 73 73 72 72 72 71 72 72 71 71 71 71 70 70 68 68 68 67 67 67 66 67 66 66 65 66 65 64 65 65 64 64 64 64 63 64 64 64 64
73 73 73 73 72 72 72 72 71 71 72 71 71 71 70 70 70 69 68 67 67 67 66 66 66 66 66 65 65 65 65 65 65 64 64 64 64 63 63 64 62 62
73 73 73 73 72 72 72 72 71 71 71 71 71 70 70 70 70 69 68 68 67 67 66 66 66 66 66 65 65 65 65 65 65 64 64 65 64 63 66 63 63 62
73 73 73 73 72 72 71 71 71 71 71 71 71 70 70 70 70 69 68 68 67 67 66 66 66 66 66 66 65 65 65 65 65 64 64 65 65 64 64 64 63 63
73 73 73 73 73 72 71 71 71 71 71 71 71 70 70 70 70 69 69 68 68 67 66 66 66 66 66 66 66 65 65 65 65 65 64 65 65 64 64 64 64 63
72 73 73 73 73 72 72 71 70 70 71 71 71 70 69 70 70 70 69 69 68 67 66 66 66 66 66 66 66 66 65 65 65 65 64 65 65 64 64 64 64 64
72 72 73 73 73 73 72 71 71 70 71 71 71 70 70 70 70 70 69 69 68 67 66 66 66 67 66 66 66 66 66 65 65 65 65 65 65 65 64 63 63 64
72 72 73 73 73 73 73 72 71 71 71 71 71 70 70 70 71 70 69 69 68 67 66 66 66 67 65 62 63 66 66 66 65 65 65 65 65 64 64 63 63 62
72 72 73 73 73 73 73 72 71 71 71 72 72 71 70 70 71 70 69 68 68 67 66 66 66 66 62 61 62 63 65 65 65 65 65 65 64 64 63 63 63 62
72 72 72 73 73 73 73 73 72 71 71 71 72 71 71 71 70 70 69 68 68 67 66 66 66 63 60 61 62 62 64 66 64 64 65 64 64 64 63 63 62 62
73 73 72 72 73 73 73 73 72 72 71 71 72 72 71 71 70 70 69 68 68 67 66 66 66 62 60 60 61 61 62 63 63 63 64 64 64 64 63 63 63 63
73 73 73 72 72 73 73 73 72 72 71 71 72 72 71 71 70 70 69 68 68 67 67 66 66 61 59 59 60 60 61 62 61 63 64 64 64 64 64 64 63 63
73 73 73 73 73 73 73 73 73 72 72 72 72 72 71 71 70 69 69 68 68 68 67 66 66 60 58 58 58 59 59 62 62 64 64 65 65 65 65 64 64 64
73 73 73 73 73 73 73 73 73 72 72 73 72 72 71 71 70 69 68 68 68 68 67 66 65 58 57 57 57 58 59 63 62 62 64 64 65 65 65 64 64 64
73 73 74 74 74 74 73 73 73 73 73 72 71 71 71 70 69 69 69 68 68 68 67 67 65 58 56 55 56 56 58 63 61 61 63 65 65 65 65 65 66 65
74 74 75 75 75 74 74 74 74 73 73 72 71 70 70 70 69 69 69 69 68 68 67 67 62 58 54 54 54 55 58 62 62 61 62 63 64 64 64 64 67 70
75 75 75 75 75 75 74 74 74 73 73 72 71 70 70 70 69 69 68 68 67 66 66 64 62 58 53 54 54 54 58 62 62 61 61 62 63 63 63 64 65 67
76 75 75 75 75 74 74 74 73 73 73 71 70 70 70 70 70 69 68 67 66 66 65 64 62 60 57 52 52 52 55 61 61 60 59 60 61 62 62 64 65 65